CARTOSAT-2A

Last updated on Sat Dec 13 2025 00:02:30 GMT+0000 (Coordinated Universal Time)

1 32783U 08021A 25346.33239414 .00001814 00000+0 25251-3 0 9994 2 32783 97.7929 36.1684 0011939 6.2188 353.9169 14.78937837951181
UTC large
Height (km)
Speed (km/s)
/
Latitude / Longitude
Inclination (degrees)
Orbital Period (minutes)
Azimuth
Elevation
Range (km)
Doppler Factor

Next 0 passes for location: London (51.5072 / 0.1276)

Sorry there are no passes over London.